Tracking 18984 objects as of 23-Feb-2018
HD Live streaming from Space Station
objects crossing your sky now

IRIDIUM 43


IRIDIUM 43 is no longer on orbit
IRIDIUM 43 is classified as:


NORAD ID: 25039
Int'l Code: 1997-069A
Perigee: N/A
Apogee: N/A
Inclination: N/A
Period: N/A
Semi major axis: N/A
RCS: N/A
Launch date: November 9, 1997
Source: United States (US)
Launch site: AIR FORCE WESTERN TEST RANGE (AFWTR)
Decay date: 2018-02-11
aabbcc
Your satellite tracking list
Your tracking list is empty




NASA's NSSDC Master Catalog

Two Line Element Set (TLE):
1 25039U 97069A   18042.52217099  .30422284 -12919-5  23927-3 0  9999
2 25039  86.3528 257.4987 0011688 182.9697 178.7481 16.52305555 63968
Source of the keplerian elements: AFSPC